TJS-5

Last updated on Thu Jul 03 2025 00:02:48 GMT+0000 (Coordinated Universal Time)

1 44978U 20002A 25183.62271876 -.00000334 00000+0 00000+0 0 9993 2 44978 0.0805 257.1079 0001592 249.5971 105.8004 1.00267009 20197
UTC large
Height (km)
Speed (km/s)
/
Latitude / Longitude
Inclination (degrees)
Orbital Period (minutes)
Azimuth
Elevation
Range (km)
Doppler Factor

Next 0 passes for location: London (51.5072 / 0.1276)

Sorry there are no passes over London.